Tracking 28799 objects as of 18-Apr-2024
HD Live streaming from Space Station
objects crossing your sky now

THORAD DELTA 1 DEB

Track THORAD DELTA 1 DEB now!
10-day predictions


NORAD ID: 42606
Int'l Code: 1974-089FX
Perigee: 1,238.3 km
Apogee: 1,523.6 km
Inclination: 102.2 °
Period: 113.2 minutes
Semi major axis: 7751 km
RCS: Unknown
Launch date: November 15, 1974
Source: United States (US)
Launch site: AIR FORCE WESTERN TEST RANGE (AFWTR)

Note: This is SATELLITE DEBRIS
Your satellite tracking list
Your tracking list is empty




NASA's NSSDC Master Catalog

Two Line Element Set (TLE):
1 42606U 74089FX  24106.85750373  .00000248  00000-0  13607-2 0  9990
2 42606 102.1954 329.2599 0184017  54.5512 319.7696 12.71996598471688
Source of the keplerian elements: AFSPC